Preston, MN

5:55 AM CDT on May 28, 2018 (GMT -0500)
Preston

Weather History for KFKA - November, 2011

Change the Weather History Date:

Friday, November 25, 2011

  Actual Average (KRST) Record (KRST)
Temperature  
Mean Temperature 49 °F -  
Max Temperature 52 °F 35 °F 61 °F (1960)
Min Temperature 46 °F 21 °F -12 °F (1977)
Degree Days  
Heating Degree Days 16    
Moisture  
Dew Point 44 °F    
Average Humidity 80    
Maximum Humidity 90    
Minimum Humidity 66    
Precipitation  
Precipitation 0.00 in - - ()
Sea Level Pressure  
Sea Level Pressure 29.74 in    
Wind  
Wind Speed 16 mph (SSW)    
Max Wind Speed 21 mph    
Max Gust Speed 28 mph    
Visibility 8 miles    
Events      
Averages and records for this station are not official NWS values.
T = Trace of Precipitation, MM = Missing Value Source: NWS Daily Summary

Daily Weather History Graph

Daily Weather History Graph

Search for Another Location

Airport or City:

Astronomy

Nov. 25, 2011 Rise Set
Actual Time 7:15 AM CST 4:35 PM CST
Civil Twilight 6:43 AM CST 5:07 PM CST
Nautical Twilight 6:07 AM CST 5:42 PM CST
Astronomical Twilight 5:33 AM CST 6:17 PM CST
Moon 7:45 AM CST (11/25) 5:01 PM CST (11/25)
Length of Visible Light 10h 24m
Length of Day
9h 20m
New Moon, 0% of the Moon is Illuminated
Nov 25
New Moon
Dec 2
First Quarter
Dec 10
Full
Dec 17
Last Quarter
Dec 24
New

Hourly Weather History & Observations

Time (CST) Temp. Windchill Dew Point Humidity Pressure Visibility Wind Dir Wind Speed Gust Speed Precip Events Conditions
12:12 AM 52.7 °F - 41.5 °F 66% 29.80 in 10.0 mi SSW 17.3 mph 23.0 mph N/A   Clear
12:33 AM 52.2 °F - 41.4 °F 67% 29.79 in 10.0 mi South 18.4 mph 25.3 mph N/A   Clear
12:52 AM 52.0 °F - 41.2 °F 67% 29.78 in 10.0 mi SSW 18.4 mph 25.3 mph N/A   Clear
1:32 AM 51.3 °F - 41.0 °F 68% 29.77 in 10.0 mi SSW 20.7 mph 27.6 mph N/A   Clear
1:52 AM 50.9 °F - 40.6 °F 68% 29.77 in 10.0 mi SSW 17.3 mph 27.6 mph N/A   Clear
2:12 AM 50.2 °F - 40.3 °F 69% 29.77 in 10.0 mi SSW 19.6 mph 25.3 mph N/A   Clear
2:33 AM 49.8 °F - 40.3 °F 70% 29.77 in 10.0 mi SSW 19.6 mph 24.2 mph N/A   Clear
2:52 AM 49.6 °F - 40.3 °F 70% 29.77 in 10.0 mi SSW 15.0 mph 25.3 mph N/A   Clear
3:12 AM 49.8 °F - 40.6 °F 71% 29.77 in 10.0 mi SSW 16.1 mph 25.3 mph N/A   Clear
3:52 AM 50.0 °F - 41.0 °F 71% 29.76 in 10.0 mi SSW 18.4 mph 23.0 mph N/A   Clear
4:12 AM 49.6 °F - 41.2 °F 73% 29.75 in 10.0 mi SSW 16.1 mph 25.3 mph N/A   Clear
4:32 AM 49.3 °F - 41.4 °F 74% 29.75 in 10.0 mi SSW 16.1 mph 24.2 mph N/A   Clear
4:52 AM 48.7 °F - 41.4 °F 76% 29.75 in 10.0 mi SSW 15.0 mph - N/A   Clear
5:12 AM 48.2 °F - 41.4 °F 77% 29.75 in 10.0 mi SSW 15.0 mph 20.7 mph N/A   Clear
5:32 AM 48.2 °F - 41.5 °F 78% 29.73 in 10.0 mi South 16.1 mph - N/A   Clear
5:52 AM 48.4 °F - 41.9 °F 78% 29.75 in 10.0 mi SSW 16.1 mph 21.9 mph N/A   Clear
6:12 AM 48.2 °F - 41.9 °F 79% 29.75 in 10.0 mi SSW 17.3 mph 21.9 mph N/A   Clear
6:33 AM 47.5 °F - 41.9 °F 81% 29.75 in 10.0 mi SSW 16.1 mph 24.2 mph N/A   Clear
6:52 AM 47.3 °F - 41.9 °F 82% 29.75 in 10.0 mi SSW 13.8 mph 21.9 mph N/A   Clear
7:12 AM 46.6 °F - 41.5 °F 83% 29.75 in 10.0 mi SSW 13.8 mph - N/A   Clear
7:32 AM 46.4 °F 40.4 °F 41.4 °F 83% 29.75 in 7.0 mi South 13.8 mph - N/A   Clear
7:52 AM 46.4 °F 39.5 °F 41.5 °F 83% 29.74 in 10.0 mi SSW 17.3 mph - N/A   Clear
8:12 AM 46.9 °F - 41.9 °F 83% 29.75 in 10.0 mi SSW 13.8 mph - N/A   Mostly Cloudy
8:32 AM 47.8 °F - 42.6 °F 82% 29.75 in 10.0 mi SSW 13.8 mph 23.0 mph N/A   Overcast
8:53 AM 48.2 °F - 42.8 °F 82% 29.75 in 10.0 mi SSW 13.8 mph 18.4 mph N/A   Overcast
9:12 AM 48.6 °F - 43.0 °F 81% 29.75 in 10.0 mi SSW 13.8 mph 18.4 mph N/A   Overcast
9:33 AM 49.1 °F - 43.3 °F 81% 29.76 in 10.0 mi SSW 15.0 mph 20.7 mph N/A   Overcast
9:52 AM 49.5 °F - 43.7 °F 81% 29.77 in 10.0 mi SSW 15.0 mph 18.4 mph N/A   Overcast
10:12 AM 50.0 °F - 43.9 °F 79% 29.76 in 7.0 mi SSW 15.0 mph 21.9 mph N/A   Overcast
10:32 AM 50.2 °F - 44.2 °F 80% 29.76 in 10.0 mi SSW 13.8 mph 20.7 mph N/A   Overcast
10:52 AM 50.4 °F - 44.6 °F 81% 29.76 in 7.0 mi SSW 12.7 mph 24.2 mph N/A   Overcast
11:32 AM 50.7 °F - 44.8 °F 80% 29.75 in 7.0 mi SSW 15.0 mph - N/A   Overcast
12:12 PM 51.1 °F - 45.0 °F 80% 29.74 in 7.0 mi SSW 12.7 mph 19.6 mph N/A   Overcast
12:32 PM 51.1 °F - 45.0 °F 80% 29.73 in 7.0 mi SSW 13.8 mph 19.6 mph N/A   Overcast
12:52 PM 50.9 °F - 44.8 °F 80% 29.73 in 7.0 mi SSW 11.5 mph 16.1 mph N/A   Overcast
1:12 PM 50.9 °F - 45.0 °F 80% 29.73 in 7.0 mi SSW 17.3 mph 21.9 mph N/A   Overcast
1:32 PM 50.9 °F - 45.0 °F 80% 29.72 in 7.0 mi South 13.8 mph 18.4 mph N/A   Overcast
2:13 PM 50.9 °F - 45.1 °F 81% 29.72 in 7.0 mi South 15.0 mph 21.9 mph N/A   Overcast
2:32 PM 51.1 °F - 45.3 °F 81% 29.72 in 5.0 mi South 13.8 mph - N/A   Haze
3:12 PM 51.1 °F - 45.7 °F 82% 29.73 in 5.0 mi SSW 13.8 mph 17.3 mph N/A   Haze
3:32 PM 50.9 °F - 45.7 °F 82% 29.69 in 5.0 mi SSE 13.8 mph - N/A   Haze
3:52 PM 50.9 °F - 45.7 °F 82% 29.71 in 5.0 mi South 15.0 mph - N/A   Haze
4:12 PM 50.9 °F - 45.7 °F 82% 29.72 in 5.0 mi South 13.8 mph - N/A   Haze
4:32 PM 50.9 °F - 45.7 °F 82% 29.73 in 7.0 mi South 16.1 mph 19.6 mph N/A   Overcast
5:13 PM 50.9 °F - 46.4 °F 85% 29.73 in 5.0 mi South 13.8 mph - N/A   Haze
5:52 PM 50.2 °F - 46.4 °F 87% 29.71 in 5.0 mi South 16.1 mph 20.7 mph N/A   Overcast
6:12 PM 50.0 °F - 46.6 °F 88% 29.72 in 5.0 mi South 15.0 mph 20.7 mph N/A   Overcast
6:32 PM 50.2 °F - 46.8 °F 88% 29.74 in 5.0 mi SSW 13.8 mph - N/A   Overcast
6:52 PM 50.4 °F - 46.6 °F 87% 29.73 in 5.0 mi South 11.5 mph - N/A   Overcast
7:32 PM 50.0 °F - 46.9 °F 89% 29.72 in 3.0 mi South 15.0 mph 19.6 mph N/A   Overcast
8:12 PM 50.2 °F - 47.3 °F 90% 29.73 in 4.0 mi South 12.7 mph - N/A   Overcast
8:32 PM 50.2 °F - 47.3 °F 90% 29.73 in 4.0 mi South 13.8 mph - N/A   Overcast
8:53 PM 50.2 °F - 47.3 °F 90% 29.74 in 4.0 mi South 11.5 mph 16.1 mph N/A   Overcast
9:12 PM 50.4 °F - 47.3 °F 89% 29.73 in 4.0 mi South 10.4 mph 16.1 mph N/A   Overcast
9:33 PM 50.4 °F - 47.7 °F 90% 29.72 in 3.0 mi South 9.2 mph - N/A   Overcast
9:52 PM 50.4 °F - 47.8 °F 91% 29.73 in 4.0 mi South 11.5 mph - N/A   Overcast
10:12 PM 50.9 °F - 48.2 °F 90% 29.73 in 4.0 mi South 9.2 mph - N/A   Overcast
10:32 PM 51.1 °F - 48.2 °F 90% 29.72 in 4.0 mi South 8.1 mph - N/A   Overcast
10:52 PM 51.4 °F - 48.4 °F 89% 29.72 in 4.0 mi South 5.8 mph - N/A   Overcast
11:12 PM 51.4 °F - 48.4 °F 89% 29.72 in 4.0 mi South 8.1 mph - N/A   Light Drizzle
11:32 PM 51.3 °F - 48.4 °F 90% 29.72 in 4.0 mi South 6.9 mph - N/A Rain Light Rain
11:52 PM 51.1 °F - 48.4 °F 90% 29.71 in 4.0 mi SSE 5.8 mph - N/A   Light Drizzle